| time (UTC) | temp C | wind direction | speed KPH | gust KPH | rain 1hr cm | rain 24hr cm | rain mn cm | humidity % | barometer mb |
| 20260505052003 | 11 | 0 | 0.0 | 0.0 | 0.00 | 0.00 | 0.00 | 100 | 1011.3 |
| 20260505051503 | 11 | 0 | 0.0 | 0.0 | 0.00 | 0.00 | 0.00 | 100 | 1011.3 |
| 20260505051003 | 11 | 0 | 0.0 | 3.2 | 0.00 | 0.00 | 0.00 | 100 | 1011.4 |
| 20260505050503 | 11 | 0 | 0.0 | 3.2 | 0.00 | 0.00 | 0.00 | 100 | 1011.4 |
| 20260505041503 | 11 | 0 | 0.0 | 4.8 | 0.00 | 0.00 | 0.00 | 100 | 1011.6 |
| 20260505041003 | 11 | 0 | 0.0 | 1.6 | 0.00 | 0.00 | 0.00 | 100 | 1011.6 |
| 20260505040503 | 11 | 0 | 0.0 | 1.6 | 0.00 | 0.00 | 0.00 | 100 | 1011.6 |
| 20260505040004 | 11 | 0 | 0.0 | 1.6 | 0.00 | 0.00 | 0.00 | 100 | 1011.6 |
| 20260505035503 | 11 | 0 | 0.0 | 1.6 | 0.00 | 0.00 | 0.00 | 100 | 1011.6 |
| 20260505035004 | 11 | 0 | 0.0 | 1.6 | 0.00 | 0.00 | 0.00 | 100 | 1011.5 |
| 20260505034003 | 11 | 0 | 0.0 | 1.6 | 0.00 | 0.00 | 0.00 | 100 | 1011.5 |
| 20260505033003 | 11 | 0 | 0.0 | 1.6 | 0.00 | 0.00 | 0.00 | 100 | 1011.6 |
| 20260505032003 | 11 | 0 | 0.0 | 6.4 | 0.00 | 0.00 | 0.00 | 100 | 1011.5 |
| 20260505031504 | 11 | 0 | 0.0 | 1.6 | 0.00 | 0.00 | 0.00 | 100 | 1011.5 |
| 20260505031003 | 11 | 0 | 0.0 | 1.6 | 0.00 | 0.00 | 0.00 | 100 | 1011.6 |
| 20260505030504 | 11 | 0 | 0.0 | 3.2 | 0.00 | 0.00 | 0.00 | 100 | 1011.7 |
| 20260505030003 | 11 | 0 | 0.0 | 3.2 | 0.00 | 0.00 | 0.00 | 100 | 1011.7 |
| 20260505025503 | 11 | 0 | 0.0 | 1.6 | 0.00 | 0.00 | 0.00 | 100 | 1011.8 |
| 20260505025004 | 11 | 0 | 0.0 | 3.2 | 0.00 | 0.00 | 0.00 | 100 | 1011.7 |
| 20260505024504 | 11 | 0 | 0.0 | 3.2 | 0.00 | 0.00 | 0.00 | 100 | 1011.7 |
| 20260505024003 | 11 | 0 | 0.0 | 1.6 | 0.00 | 0.00 | 0.00 | 100 | 1011.7 |
| 20260505023503 | 11 | 0 | 0.0 | 6.4 | 0.00 | 0.00 | 0.00 | 100 | 1011.7 |
| 20260505023005 | 11 | 173 | 1.6 | 6.4 | 0.00 | 0.00 | 0.00 | 100 | 1011.7 |
| 20260505022503 | 11 | 175 | 1.6 | 4.8 | 0.00 | 0.00 | 0.00 | 100 | 1011.6 |
| 20260505021504 | 11 | 0 | 0.0 | 8.0 | 0.00 | 0.00 | 0.00 | 100 | 1011.8 |
| 20260505021004 | 11 | 0 | 0.0 | 4.8 | 0.00 | 0.00 | 0.00 | 100 | 1011.8 |
| 20260505020503 | 11 | 0 | 0.0 | 4.8 | 0.00 | 0.00 | 0.00 | 100 | 1011.8 |
| 20260505020003 | 11 | 0 | 0.0 | 4.8 | 0.00 | 0.00 | 0.00 | 100 | 1011.7 |
| 20260505015504 | 11 | 0 | 0.0 | 8.0 | 0.00 | 0.00 | 0.00 | 100 | 1011.7 |
| 20260505015004 | 11 | 171 | 1.6 | 8.0 | 0.00 | 0.00 | 0.00 | 100 | 1011.7 |
| 20260505014503 | 11 | 181 | 1.6 | 8.0 | 0.00 | 0.00 | 0.00 | 100 | 1011.7 |
| 20260505014003 | 11 | 183 | 1.6 | 9.7 | 0.00 | 0.00 | 0.00 | 100 | 1011.7 |
| 20260505013004 | 11 | 173 | 1.6 | 8.0 | 0.00 | 0.00 | 0.00 | 100 | 1011.6 |
| 20260505012503 | 11 | 179 | 1.6 | 8.0 | 0.00 | 0.00 | 0.00 | 100 | 1011.5 |
| 20260505012003 | 11 | 179 | 3.2 | 11.3 | 0.00 | 0.00 | 0.00 | 100 | 1011.4 |
| 20260505011504 | 11 | 184 | 3.2 | 11.3 | 0.00 | 0.00 | 0.00 | 100 | 1011.3 |
| 20260505011003 | 11 | 186 | 3.2 | 11.3 | 0.00 | 0.00 | 0.00 | 100 | 1011.2 |
| 20260505010503 | 11 | 178 | 1.6 | 9.7 | 0.00 | 0.00 | 0.00 | 100 | 1011.1 |
| 20260505010004 | 11 | 0 | 0.0 | 4.8 | 0.00 | 0.00 | 0.00 | 100 | 1011.0 |
| 20260505004504 | 11 | 181 | 1.6 | 9.7 | 0.00 | 0.00 | 0.00 | 100 | 1010.8 |
| 20260505004003 | 11 | 173 | 1.6 | 11.3 | 0.00 | 0.00 | 0.00 | 100 | 1010.7 |
| 20260505003503 | 11 | 175 | 1.6 | 11.3 | 0.00 | 0.00 | 0.00 | 100 | 1010.6 |
| 20260505003004 | 11 | 193 | 1.6 | 9.7 | 0.00 | 0.00 | 0.00 | 100 | 1010.4 |
| 20260505002004 | 11 | 190 | 3.2 | 11.3 | 0.00 | 0.00 | 0.00 | 100 | 1010.2 |
| 20260505001004 | 11 | 189 | 3.2 | 8.0 | 0.00 | 0.00 | 0.00 | 100 | 1010.1 |
| 20260505000503 | 11 | 187 | 3.2 | 8.0 | 0.00 | 0.00 | 0.00 | 100 | 1010.1 |
| 20260504235503 | 11 | 178 | 3.2 | 12.9 | 0.00 | 0.00 | 0.00 | 100 | 1009.8 |
| 20260504235003 | 11 | 197 | 3.2 | 16.1 | 0.00 | 0.00 | 0.00 | 100 | 1009.7 |
| 20260504233003 | 11 | 197 | 4.8 | 14.5 | 0.00 | 0.00 | 0.00 | 100 | 1009.5 |
| 20260504232503 | 11 | 193 | 4.8 | 17.7 | 0.00 | 0.00 | 0.00 | 100 | 1009.5 |
| 20260504232004 | 11 | 189 | 4.8 | 17.7 | 0.00 | 0.00 | 0.00 | 100 | 1009.3 |
| 20260504231503 | 11 | 184 | 4.8 | 20.9 | 0.00 | 0.00 | 0.00 | 100 | 1009.3 |
| 20260504231003 | 11 | 184 | 4.8 | 20.9 | 0.00 | 0.00 | 0.00 | 100 | 1009.2 |
| 20260504230503 | 11 | 188 | 4.8 | 19.3 | 0.00 | 0.00 | 0.00 | 100 | 1009.0 |
| 20260504230003 | 11 | 197 | 4.8 | 19.3 | 0.00 | 0.00 | 0.00 | 100 | 1009.3 |
| 20260504225503 | 11 | 193 | 6.4 | 19.3 | 0.00 | 0.00 | 0.00 | 100 | 1009.2 |
| 20260504225003 | 11 | 185 | 6.4 | 17.7 | 0.00 | 0.00 | 0.00 | 100 | 1009.2 |
| 20260504224503 | 11 | 183 | 6.4 | 16.1 | 0.00 | 0.00 | 0.00 | 100 | 1009.1 |
| 20260504224004 | 11 | 186 | 4.8 | 16.1 | 0.00 | 0.00 | 0.00 | 100 | 1009.0 |
| 20260504223503 | 11 | 190 | 3.2 | 19.3 | 0.00 | 0.00 | 0.00 | 100 | 1009.0 |
| 20260504223003 | 11 | 191 | 4.8 | 19.3 | 0.00 | 0.00 | 0.00 | 100 | 1009.0 |
| 20260504222503 | 11 | 193 | 4.8 | 24.1 | 0.00 | 0.00 | 0.00 | 100 | 1008.8 |
| 20260504221503 | 11 | 193 | 6.4 | 20.9 | 0.00 | 0.00 | 0.00 | 100 | 1008.8 |
| 20260504221003 | 11 | 188 | 6.4 | 16.1 | 0.00 | 0.00 | 0.00 | 100 | 1008.8 |
| 20260504220003 | 11 | 175 | 3.2 | 20.9 | 0.00 | 0.00 | 0.00 | 100 | 1008.8 |
| 20260504215503 | 11 | 178 | 4.8 | 20.9 | 0.00 | 0.00 | 0.00 | 100 | 1008.7 |
| 20260504215003 | 11 | 183 | 4.8 | 14.5 | 0.00 | 0.00 | 0.00 | 100 | 1008.7 |
| 20260504214503 | 11 | 184 | 4.8 | 19.3 | 0.00 | 0.00 | 0.00 | 100 | 1008.6 |
| 20260504214003 | 11 | 182 | 4.8 | 19.3 | 0.00 | 0.00 | 0.00 | 100 | 1008.7 |
| 20260504213503 | 11 | 178 | 4.8 | 16.1 | 0.00 | 0.00 | 0.00 | 100 | 1008.6 |
| 20260504213003 | 11 | 179 | 6.4 | 20.9 | 0.00 | 0.00 | 0.00 | 100 | 1008.6 |
| 20260504212503 | 11 | 181 | 4.8 | 20.9 | 0.00 | 0.00 | 0.00 | 100 | 1008.6 |
| 20260504212003 | 11 | 186 | 4.8 | 16.1 | 0.00 | 0.00 | 0.00 | 100 | 1008.6 |
| 20260504211503 | 11 | 187 | 8.0 | 22.5 | 0.00 | 0.00 | 0.00 | 100 | 1008.5 |
| 20260504211003 | 11 | 185 | 6.4 | 24.1 | 0.00 | 0.00 | 0.00 | 100 | 1008.4 |
| 20260504210503 | 11 | 188 | 6.4 | 24.1 | 0.00 | 0.00 | 0.00 | 100 | 1008.4 |
| 20260504210003 | 11 | 189 | 6.4 | 22.5 | 0.00 | 0.00 | 0.00 | 100 | 1008.4 |
| 20260504205503 | 11 | 183 | 6.4 | 16.1 | 0.00 | 0.00 | 0.00 | 100 | 1008.7 |
| 20260504205003 | 11 | 188 | 4.8 | 16.1 | 0.00 | 0.00 | 0.00 | 100 | 1008.7 |
| 20260504204504 | 11 | 193 | 6.4 | 20.9 | 0.00 | 0.00 | 0.00 | 100 | 1008.5 |
| 20260504204003 | 11 | 192 | 6.4 | 20.9 | 0.00 | 0.00 | 0.00 | 100 | 1008.4 |
| 20260504203503 | 11 | 185 | 4.8 | 16.1 | 0.00 | 0.00 | 0.00 | 100 | 1008.3 |
| 20260504203003 | 11 | 179 | 4.8 | 16.1 | 0.00 | 0.00 | 0.00 | 100 | 1008.4 |
| 20260504202503 | 11 | 179 | 4.8 | 14.5 | 0.00 | 0.00 | 0.00 | 100 | 1008.3 |
| 20260504202003 | 11 | 175 | 4.8 | 14.5 | 0.00 | 0.00 | 0.00 | 100 | 1008.4 |
| 20260504201503 | 11 | 181 | 6.4 | 17.7 | 0.00 | 0.00 | 0.00 | 100 | 1008.4 |
| 20260504200503 | 11 | 192 | 8.0 | 20.9 | 0.00 | 0.00 | 0.00 | 100 | 1008.3 |
| 20260504200003 | 11 | 179 | 6.4 | 19.3 | 0.00 | 0.00 | 0.00 | 100 | 1008.3 |
| 20260504195503 | 11 | 184 | 8.0 | 22.5 | 0.00 | 0.00 | 0.00 | 100 | 1008.4 |
| 20260504195003 | 11 | 184 | 8.0 | 25.7 | 0.00 | 0.00 | 0.00 | 100 | 1008.4 |
| 20260504194504 | 11 | 182 | 8.0 | 25.7 | 0.00 | 0.00 | 0.00 | 100 | 1008.4 |
| 20260504194003 | 11 | 193 | 6.4 | 20.9 | 0.00 | 0.00 | 0.00 | 100 | 1008.4 |
| 20260504193503 | 11 | 198 | 8.0 | 22.5 | 0.00 | 0.00 | 0.00 | 100 | 1008.4 |
| 20260504193003 | 11 | 200 | 6.4 | 22.5 | 0.00 | 0.00 | 0.00 | 100 | 1008.4 |
| 20260504192003 | 11 | 192 | 8.0 | 30.6 | 0.00 | 0.00 | 0.00 | 100 | 1008.3 |
| 20260504191503 | 11 | 195 | 8.0 | 24.1 | 0.00 | 0.00 | 0.00 | 100 | 1008.4 |
| 20260504191004 | 11 | 200 | 8.0 | 22.5 | 0.00 | 0.00 | 0.00 | 100 | 1008.3 |
| 20260504190504 | 11 | 198 | 6.4 | 20.9 | 0.00 | 0.00 | 0.00 | 100 | 1008.5 |
| 20260504190004 | 11 | 200 | 6.4 | 16.1 | 0.00 | 0.00 | 0.00 | 100 | 1008.5 |
| 20260504185504 | 11 | 198 | 6.4 | 20.9 | 0.00 | 0.00 | 0.00 | 100 | 1008.6 |
| 20260504185004 | 11 | 201 | 6.4 | 20.9 | 0.00 | 0.00 | 0.00 | 100 | 1008.5 |
| 20260504184503 | 11 | 210 | 6.4 | 20.9 | 0.00 | 0.00 | 0.00 | 100 | 1008.5 |
| 20260504184003 | 11 | 223 | 4.8 | 14.5 | 0.00 | 0.00 | 0.00 | 100 | 1008.6 |
| 20260504183504 | 11 | 230 | 4.8 | 14.5 | 0.00 | 0.00 | 0.00 | 100 | 1008.7 |
| 20260504183003 | 11 | 244 | 6.4 | 22.5 | 0.00 | 0.00 | 0.00 | 100 | 1008.7 |
| 20260504182503 | 11 | 254 | 6.4 | 22.5 | 0.00 | 0.00 | 0.00 | 100 | 1008.8 |
| 20260504182003 | 11 | 255 | 6.4 | 17.7 | 0.00 | 0.00 | 0.00 | 100 | 1008.8 |
| 20260504181003 | 11 | 199 | 8.0 | 27.4 | 0.00 | 0.00 | 0.00 | 100 | 1008.8 |
| 20260504180503 | 11 | 194 | 9.7 | 27.4 | 0.00 | 0.00 | 0.00 | 100 | 1009.0 |
| 20260504180004 | 11 | 185 | 8.0 | 25.7 | 0.00 | 0.00 | 0.00 | 100 | 1008.8 |
| 20260504175503 | 11 | 192 | 8.0 | 25.7 | 0.00 | 0.00 | 0.00 | 100 | 1008.9 |
| 20260504175003 | 11 | 194 | 6.4 | 24.1 | 0.00 | 0.00 | 0.00 | 100 | 1008.8 |
| 20260504174004 | 11 | 191 | 6.4 | 22.5 | 0.00 | 0.00 | 0.00 | 100 | 1008.6 |
| 20260504173503 | 11 | 199 | 6.4 | 27.4 | 0.00 | 0.00 | 0.00 | 100 | 1008.7 |
| 20260504173003 | 11 | 201 | 6.4 | 27.4 | 0.00 | 0.00 | 0.00 | 100 | 1008.6 |
| 20260504172504 | 11 | 203 | 8.0 | 24.1 | 0.00 | 0.00 | 0.00 | 100 | 1008.9 |
| 20260504172004 | 11 | 212 | 6.4 | 25.7 | 0.00 | 0.00 | 0.00 | 100 | 1008.8 |
| 20260504171503 | 11 | 217 | 6.4 | 25.7 | 0.00 | 0.00 | 0.00 | 100 | 1008.7 |
| 20260504171003 | 11 | 207 | 4.8 | 16.1 | 0.00 | 0.00 | 0.00 | 100 | 1009.0 |
| 20260504170504 | 11 | 206 | 4.8 | 22.5 | 0.00 | 0.00 | 0.00 | 100 | 1009.0 |
| 20260504150503 | 11 | 199 | 4.8 | 17.7 | 0.00 | 0.03 | 0.00 | 100 | 1010.2 |
| 20260504140503 | 11 | 304 | 4.8 | 19.3 | 0.00 | 0.03 | 0.00 | 100 | 1010.9 |
| 20260504100504 | 6 | 0 | 0.0 | 0.0 | 0.00 | 0.03 | 0.00 | 69 | 1011.5 |
| 20260504080503 | 5 | 0 | 0.0 | 0.0 | 0.00 | 0.03 | 0.00 | 69 | 1011.0 |